Weather Roundup
Issued by NWS Chicago, IL

Home | Current Version | Previous Version | Graphics & Text | Print | Product List | Glossary On
Versions: 1 2 3 4 5 6 7 8 9 10 11 12 13 14 15 16 17 18 19 20 21 22 23 24 25 26 27 28 29 30 31 32 33 34 35 36 37 38 39 40 41 42 43 44 45 46 47 48 49 50
000
NZUS59 KLOT 230821
HRRLOT

CHICAGO AREA WEATHER ROUNDUP
NATIONAL WEATHER SERVICE CHICAGO/ROMEOVILLE IL
300 AM CDT SAT MAY 23 2015

NOTE: "FAIR" INDICATES FEW OR NO CLOUDS BELOW 12,000 FEET WITH NO
SIGNIFICANT WEATHER AND/OR OBSTRUCTIONS TO VISIBILITY.

* THESE STATIONS ARE NOT UNDER NWS QUALITY CONTROL. THEY ALSO MAY NOT
  REPORT WEATHER SUCH AS PRECIPITATION OR FOG.

ILZ005-006-012>014-019>023-230900-
NORTHEAST ILLINOIS

CITY           SKY/WX    TMP DP  RH WIND       PRES   REMARKS
OHARE          MOCLDY    51  34  52 SE5       30.29R
MIDWAY         MOCLDY    55  39  54 SE5       30.29S
AURORA         MOCLDY    49  36  61 E3        30.29S
LANSING*       MOCLDY    48  40  71 CALM      30.30R
JOLIET*        CLOUDY    55  39  56 E3        30.29R
WAUKEGAN       PTCLDY    43  36  76 SW3       30.29R
DUPAGE AIRPORT PTCLDY    47  34  60 CALM      30.29R
WHEELING       PTCLDY    46  38  73 CALM      30.31S
KANKAKEE*      MOCLDY    54  38  53 CALM      30.29S
MORRIS*        CLOUDY    53  39  60 E3        30.26S
LEWIS AIRPORT* MOCLDY    53  37  54 E7        30.29S
NORTHERLY IS     N/A     52  42  69 CALM        N/A
$$

WIZ051-052-058>065-066-070>072-230900-
SOUTHEAST WISCONSIN

CITY           SKY/WX    TMP DP  RH WIND       PRES   REMARKS
MILWAUKEE      PTCLDY    48  30  49 SW6       30.29R
KENOSHA*       PTCLDY    45  34  65 SW3       30.29S
RACINE*        MOCLDY    49  29  46 SW6       30.31R
BURLINGTON     PTCLDY    40  33  76 CALM      30.29S
WAUKESHA       PTCLDY    46  28  49 S5        30.30S
WEST BEND      PTCLDY    48  27  43 CALM      30.28S
$$

INZ001>003-010>013-019-020-230900-
NORTHWEST INDIANA

CITY           SKY/WX    TMP DP  RH WIND       PRES   REMARKS
GARY*          PTCLDY    47  42  81 SE3       30.30S
MICHIGAN CITY* NOT AVBL
RENSSELAER*    NOT AVBL
VALPARAISO     PTCLDY    49  37  63 E5        30.31S
$$

LMZ740>746-230900-
SOUTHERN LAKE MICHIGAN

STATION/POSITION TIME  SKY/WX   TEMP WIND        PRES    VSBY
                                AIR  DIR/SP/G
                 (UTC)          (F)  (DEG/KT/KT) (MB)    (MI)
HARRISON CRIB    0800            56  160/  9/ 10   N/A
BURNHAM HARBOR   0800            52   CALM  /  2   N/A
CALUMET HARBOR   0706            57  110/  4/  8   N/A
BURNS HARBOR     0700            61  120/ 11/ 17 1026.1S
MICHIGAN CITY    0800            53  120/  9/ 10   N/A
$$

ABBREVIATIONS USED IN REMARKS
   TC - TEMPERATURE IN CELSIUS
  WCI - WIND CHILL INDEX
   HX - HEAT INDEX
  VSB - VISIBILITY
$$



USA.gov is the U.S. government's official web portal to all federal, state and local government web resources and services.